Year,Month,Day,Hour,Minute,Value (Times are PST for temperature in C)
2009,06,11,00,00,17.80
2009,06,11,00,01,17.80
2009,06,11,00,02,17.80
2009,06,11,00,03,17.80
2009,06,11,00,04,17.80
2009,06,11,00,05,17.70
2009,06,11,00,06,17.70
2009,06,11,00,07,17.70
2009,06,11,00,08,17.70
2009,06,11,00,09,17.70
2009,06,11,00,10,17.70
2009,06,11,00,11,17.60
2009,06,11,00,12,17.60
2009,06,11,00,13,17.60
2009,06,11,00,14,17.60
2009,06,11,00,15,17.60
2009,06,11,00,16,17.50
2009,06,11,00,17,17.50
2009,06,11,00,18,17.50
2009,06,11,00,19,17.50
2009,06,11,00,20,17.50
2009,06,11,00,21,17.40
2009,06,11,00,22,17.40
2009,06,11,00,23,17.40
2009,06,11,00,24,17.40
2009,06,11,00,25,17.40
2009,06,11,00,26,17.40
2009,06,11,00,27,17.40
2009,06,11,00,28,17.40
2009,06,11,00,29,17.40
2009,06,11,00,30,17.40
2009,06,11,00,31,17.30
2009,06,11,00,32,17.30
2009,06,11,00,33,17.30
2009,06,11,00,34,17.30
2009,06,11,00,35,17.30
2009,06,11,00,36,17.30
2009,06,11,00,37,17.30
2009,06,11,00,38,17.30
2009,06,11,00,39,17.30
2009,06,11,00,40,17.30
2009,06,11,00,41,17.30
2009,06,11,00,42,17.30
2009,06,11,00,43,17.30
2009,06,11,00,44,17.30
2009,06,11,00,45,17.30
2009,06,11,00,46,17.30
2009,06,11,00,47,17.30
2009,06,11,00,48,17.30
2009,06,11,00,49,17.30
2009,06,11,00,50,17.30
2009,06,11,00,51,17.20
2009,06,11,00,52,17.20
2009,06,11,00,53,17.20
2009,06,11,00,54,17.20
2009,06,11,00,55,17.20
2009,06,11,00,56,17.20
2009,06,11,00,57,17.10
2009,06,11,00,58,17.10
2009,06,11,00,59,17.10
2009,06,11,01,00,17.10
2009,06,11,01,01,17.00
2009,06,11,01,02,17.00
2009,06,11,01,03,16.90
2009,06,11,01,04,16.90
2009,06,11,01,05,16.90
2009,06,11,01,06,16.90
2009,06,11,01,07,16.90
2009,06,11,01,08,16.90
2009,06,11,01,09,16.80
2009,06,11,01,10,16.80
2009,06,11,01,11,16.80
2009,06,11,01,12,16.80
2009,06,11,01,13,16.80
2009,06,11,01,14,16.80
2009,06,11,01,15,16.70
2009,06,11,01,16,16.70
2009,06,11,01,17,16.70
2009,06,11,01,18,16.70
2009,06,11,01,19,16.70
2009,06,11,01,20,16.60
2009,06,11,01,21,16.60
2009,06,11,01,22,16.60
2009,06,11,01,23,16.50
2009,06,11,01,24,16.50
2009,06,11,01,25,16.50
2009,06,11,01,26,16.40
2009,06,11,01,27,16.40
2009,06,11,01,28,16.40
2009,06,11,01,29,16.40
2009,06,11,01,30,16.40
2009,06,11,01,31,16.40
2009,06,11,01,32,16.40
2009,06,11,01,33,16.40
2009,06,11,01,34,16.40
2009,06,11,01,35,16.40
2009,06,11,01,36,16.40
2009,06,11,01,37,16.40
2009,06,11,01,38,16.30
2009,06,11,01,39,16.30
2009,06,11,01,40,16.30
2009,06,11,01,41,16.30
2009,06,11,01,42,16.30
2009,06,11,01,43,16.30
2009,06,11,01,44,16.20
2009,06,11,01,45,16.20
2009,06,11,01,46,16.20
2009,06,11,01,47,16.20
2009,06,11,01,48,16.20
2009,06,11,01,49,16.10
2009,06,11,01,50,16.10
2009,06,11,01,51,16.10
2009,06,11,01,52,16.10
2009,06,11,01,53,16.10
2009,06,11,01,54,16.10
2009,06,11,01,55,16.10
2009,06,11,01,56,16.10
2009,06,11,01,57,16.10
2009,06,11,01,58,16.10
2009,06,11,01,59,16.10
2009,06,11,02,00,16.10
2009,06,11,02,01,16.00
2009,06,11,02,02,16.00
2009,06,11,02,03,16.00
2009,06,11,02,04,16.00
2009,06,11,02,05,16.00
2009,06,11,02,06,16.10
2009,06,11,02,07,16.10
2009,06,11,02,08,16.10
2009,06,11,02,09,16.10
2009,06,11,02,10,16.10
2009,06,11,02,11,16.10
2009,06,11,02,12,16.10
2009,06,11,02,13,16.10
2009,06,11,02,14,16.10
2009,06,11,02,15,16.10
2009,06,11,02,16,16.10
2009,06,11,02,17,16.10
2009,06,11,02,18,16.10
2009,06,11,02,19,16.10
2009,06,11,02,20,16.20
2009,06,11,02,21,16.20
2009,06,11,02,22,16.20
2009,06,11,02,23,16.20
2009,06,11,02,24,16.20
2009,06,11,02,25,16.20
2009,06,11,02,26,16.20
2009,06,11,02,27,16.20
2009,06,11,02,28,16.20
2009,06,11,02,29,16.20
2009,06,11,02,30,16.20
2009,06,11,02,31,16.20
2009,06,11,02,32,16.20
2009,06,11,02,33,16.10
2009,06,11,02,34,16.10
2009,06,11,02,35,16.10
2009,06,11,02,36,16.10
2009,06,11,02,37,16.10
2009,06,11,02,38,16.10
2009,06,11,02,39,16.00
2009,06,11,02,40,16.00
2009,06,11,02,41,15.90
2009,06,11,02,42,15.90
2009,06,11,02,43,15.90
2009,06,11,02,44,15.90
2009,06,11,02,45,15.90
2009,06,11,02,46,15.90
2009,06,11,02,47,15.90
2009,06,11,02,48,15.90
2009,06,11,02,49,15.90
2009,06,11,02,50,15.80
2009,06,11,02,51,15.80
2009,06,11,02,52,15.80
2009,06,11,02,53,15.80
2009,06,11,02,54,15.80
2009,06,11,02,55,15.80
2009,06,11,02,56,15.80
2009,06,11,02,57,15.70
2009,06,11,02,58,15.70
2009,06,11,02,59,15.70
2009,06,11,03,00,15.70
2009,06,11,03,01,15.70
2009,06,11,03,02,15.70
2009,06,11,03,03,15.70
2009,06,11,03,04,15.70
2009,06,11,03,05,15.70
2009,06,11,03,06,15.70
2009,06,11,03,07,15.70
2009,06,11,03,08,15.70
2009,06,11,03,09,15.70
2009,06,11,03,10,15.70
2009,06,11,03,11,15.70
2009,06,11,03,12,15.60
2009,06,11,03,13,15.60
2009,06,11,03,14,15.60
2009,06,11,03,15,15.60
2009,06,11,03,16,15.60
2009,06,11,03,17,15.50
2009,06,11,03,18,15.50
2009,06,11,03,19,15.50
2009,06,11,03,20,15.40
2009,06,11,03,21,15.40
2009,06,11,03,22,15.40
2009,06,11,03,23,15.40
2009,06,11,03,24,15.30
2009,06,11,03,25,15.30
2009,06,11,03,26,15.30
2009,06,11,03,27,15.20
2009,06,11,03,28,15.20
2009,06,11,03,29,15.20
2009,06,11,03,30,15.20
2009,06,11,03,31,15.10
2009,06,11,03,32,15.00
2009,06,11,03,33,15.00
2009,06,11,03,34,15.00
2009,06,11,03,35,15.00
2009,06,11,03,36,15.00
2009,06,11,03,37,15.00
2009,06,11,03,38,15.00
2009,06,11,03,39,15.00
2009,06,11,03,40,15.00
2009,06,11,03,41,15.00
2009,06,11,03,42,15.00
2009,06,11,03,43,15.00
2009,06,11,03,44,15.00
2009,06,11,03,45,15.00
2009,06,11,03,46,15.00
2009,06,11,03,47,15.00
2009,06,11,03,48,15.00
2009,06,11,03,49,14.90
2009,06,11,03,50,14.90
2009,06,11,03,51,14.80
2009,06,11,03,52,14.80
2009,06,11,03,53,14.80
2009,06,11,03,54,14.70
2009,06,11,03,55,14.70
2009,06,11,03,56,14.70
2009,06,11,03,57,14.70
2009,06,11,03,58,14.70
2009,06,11,03,59,14.70
2009,06,11,04,00,14.70
2009,06,11,04,01,14.60
2009,06,11,04,02,14.60
2009,06,11,04,03,14.70
2009,06,11,04,04,14.70
2009,06,11,04,05,14.70
2009,06,11,04,06,14.70
2009,06,11,04,07,14.60
2009,06,11,04,08,14.60
2009,06,11,04,09,14.60
2009,06,11,04,10,14.60
2009,06,11,04,11,14.60
2009,06,11,04,12,14.60
2009,06,11,04,13,14.60
2009,06,11,04,14,14.60
2009,06,11,04,15,14.50
2009,06,11,04,16,14.50
2009,06,11,04,17,14.50
2009,06,11,04,18,14.50
2009,06,11,04,19,14.50
2009,06,11,04,20,14.40
2009,06,11,04,21,14.40
2009,06,11,04,22,14.40
2009,06,11,04,23,14.40
2009,06,11,04,24,14.40
2009,06,11,04,25,14.40
2009,06,11,04,26,14.30
2009,06,11,04,27,14.30
2009,06,11,04,28,14.30
2009,06,11,04,29,14.30
2009,06,11,04,30,14.30
2009,06,11,04,31,14.30
2009,06,11,04,32,14.30
2009,06,11,04,33,14.30
2009,06,11,04,34,14.30
2009,06,11,04,35,14.30
2009,06,11,04,36,14.30
2009,06,11,04,37,14.40
2009,06,11,04,38,14.40
2009,06,11,04,39,14.40
2009,06,11,04,40,14.40
2009,06,11,04,41,14.40
2009,06,11,04,42,14.40
2009,06,11,04,43,14.40
2009,06,11,04,44,14.40
2009,06,11,04,45,14.40
2009,06,11,04,46,14.40
2009,06,11,04,47,14.40
2009,06,11,04,48,14.40
2009,06,11,04,49,14.40
2009,06,11,04,50,14.40
2009,06,11,04,51,14.40
2009,06,11,04,52,14.40
2009,06,11,04,53,14.30
2009,06,11,04,54,14.30
2009,06,11,04,55,14.30
2009,06,11,04,56,14.30
2009,06,11,04,57,14.30
2009,06,11,04,58,14.30
2009,06,11,04,59,14.30
2009,06,11,05,00,14.20
2009,06,11,05,01,14.20
2009,06,11,05,02,14.20
2009,06,11,05,03,14.20
2009,06,11,05,04,14.10
2009,06,11,05,05,14.10
2009,06,11,05,06,14.10
2009,06,11,05,07,14.10
2009,06,11,05,08,14.10
2009,06,11,05,09,14.10
2009,06,11,05,10,14.10
2009,06,11,05,11,14.10
2009,06,11,05,12,14.10
2009,06,11,05,13,14.10
2009,06,11,05,14,14.10
2009,06,11,05,15,14.00
2009,06,11,05,16,14.00
2009,06,11,05,17,14.00
2009,06,11,05,18,14.00
2009,06,11,05,19,13.90
2009,06,11,05,20,13.90
2009,06,11,05,21,13.90
2009,06,11,05,22,13.90
2009,06,11,05,23,13.90
2009,06,11,05,24,13.90
2009,06,11,05,25,13.90
2009,06,11,05,26,13.90
2009,06,11,05,27,13.90
2009,06,11,05,28,13.80
2009,06,11,05,29,13.80
2009,06,11,05,30,13.80
2009,06,11,05,31,13.80
2009,06,11,05,32,13.80
2009,06,11,05,33,13.80
2009,06,11,05,34,13.70
2009,06,11,05,35,13.70
2009,06,11,05,36,13.70
2009,06,11,05,37,13.70
2009,06,11,05,38,13.70
2009,06,11,05,39,13.70
2009,06,11,05,40,13.70
2009,06,11,05,41,13.70
2009,06,11,05,42,13.70
2009,06,11,05,43,13.70
2009,06,11,05,44,13.70
2009,06,11,05,45,13.70
2009,06,11,05,46,13.70
2009,06,11,05,47,13.70
2009,06,11,05,48,13.70
2009,06,11,05,49,13.70
2009,06,11,05,50,13.70
2009,06,11,05,51,13.70
2009,06,11,05,52,13.70
2009,06,11,05,53,13.70
2009,06,11,05,54,13.70
2009,06,11,05,55,13.70
2009,06,11,05,56,13.70
2009,06,11,05,57,13.70
2009,06,11,05,58,13.70
2009,06,11,05,59,13.70
2009,06,11,06,00,13.70
2009,06,11,06,01,13.70
2009,06,11,06,02,13.70
2009,06,11,06,03,13.80
2009,06,11,06,04,13.80
2009,06,11,06,05,13.80
2009,06,11,06,06,13.80
2009,06,11,06,07,13.80
2009,06,11,06,08,13.80
2009,06,11,06,09,13.80
2009,06,11,06,10,13.80
2009,06,11,06,11,13.90
2009,06,11,06,12,13.90
2009,06,11,06,13,13.90
2009,06,11,06,14,13.90
2009,06,11,06,15,13.90
2009,06,11,06,16,13.90
2009,06,11,06,17,13.90
2009,06,11,06,18,13.80
2009,06,11,06,19,13.80
2009,06,11,06,20,13.80
2009,06,11,06,21,13.80
2009,06,11,06,22,13.80
2009,06,11,06,23,13.80
2009,06,11,06,24,13.80
2009,06,11,06,25,13.80
2009,06,11,06,26,13.80
2009,06,11,06,27,13.70
2009,06,11,06,28,13.70
2009,06,11,06,29,13.70
2009,06,11,06,30,13.70
2009,06,11,06,31,13.70
2009,06,11,06,32,13.70
2009,06,11,06,33,13.70
2009,06,11,06,34,13.80
2009,06,11,06,35,13.70
2009,06,11,06,36,13.70
2009,06,11,06,37,13.80
2009,06,11,06,38,13.70
2009,06,11,06,39,13.70
2009,06,11,06,40,13.80
2009,06,11,06,41,13.80
2009,06,11,06,42,13.80
2009,06,11,06,43,13.80
2009,06,11,06,44,13.80
2009,06,11,06,45,13.80
2009,06,11,06,46,13.80
2009,06,11,06,47,13.80
2009,06,11,06,48,13.80
2009,06,11,06,49,13.80
2009,06,11,06,50,13.80
2009,06,11,06,51,13.80
2009,06,11,06,52,13.80
2009,06,11,06,53,13.80
2009,06,11,06,54,13.80
2009,06,11,06,55,13.90
2009,06,11,06,56,13.90
2009,06,11,06,57,13.90
2009,06,11,06,58,13.90
2009,06,11,06,59,13.90
2009,06,11,07,00,13.90
2009,06,11,07,01,13.90
2009,06,11,07,02,14.00
2009,06,11,07,03,14.00
2009,06,11,07,04,14.00
2009,06,11,07,05,14.00
2009,06,11,07,06,14.00
2009,06,11,07,07,14.00
2009,06,11,07,08,14.10
2009,06,11,07,09,14.10
2009,06,11,07,10,14.10
2009,06,11,07,11,14.10
2009,06,11,07,12,14.10
2009,06,11,07,13,14.10
2009,06,11,07,14,14.10
2009,06,11,07,15,14.10
2009,06,11,07,16,14.10
2009,06,11,07,17,14.10
2009,06,11,07,18,14.10
2009,06,11,07,19,14.10
2009,06,11,07,20,14.20
2009,06,11,07,21,14.20
2009,06,11,07,22,14.20
2009,06,11,07,23,14.20
2009,06,11,07,24,14.20
2009,06,11,07,25,14.20
2009,06,11,07,26,14.30
2009,06,11,07,27,14.30
2009,06,11,07,28,14.30
2009,06,11,07,29,14.30
2009,06,11,07,30,14.30
2009,06,11,07,31,14.40
2009,06,11,07,32,14.40
2009,06,11,07,33,14.40
2009,06,11,07,34,14.40
2009,06,11,07,35,14.50
2009,06,11,07,36,14.50
2009,06,11,07,37,14.60
2009,06,11,07,38,14.60
2009,06,11,07,39,14.60
2009,06,11,07,40,14.70
2009,06,11,07,41,14.70
2009,06,11,07,42,14.70
2009,06,11,07,43,14.80
2009,06,11,07,44,14.90
2009,06,11,07,45,15.00
2009,06,11,07,46,15.00
2009,06,11,07,47,15.00
2009,06,11,07,48,15.10
2009,06,11,07,49,15.20
2009,06,11,07,50,15.30
2009,06,11,07,51,15.40
2009,06,11,07,52,15.50
2009,06,11,07,53,15.50
2009,06,11,07,54,15.50
2009,06,11,07,55,15.50
2009,06,11,07,56,15.60
2009,06,11,07,57,15.60
2009,06,11,07,58,15.60
2009,06,11,07,59,15.60
2009,06,11,08,00,15.60
2009,06,11,08,01,15.60
2009,06,11,08,02,15.60
2009,06,11,08,03,15.60
2009,06,11,08,04,15.60
2009,06,11,08,05,15.60
2009,06,11,08,06,15.60
2009,06,11,08,07,15.70
2009,06,11,08,08,15.70
2009,06,11,08,09,15.70
2009,06,11,08,10,15.70
2009,06,11,08,11,15.80
2009,06,11,08,12,15.80
2009,06,11,08,13,15.90
2009,06,11,08,14,15.90
2009,06,11,08,15,15.90
2009,06,11,08,16,16.00
2009,06,11,08,17,16.00
2009,06,11,08,18,16.10
2009,06,11,08,19,16.10
2009,06,11,08,20,16.20
2009,06,11,08,21,16.20
2009,06,11,08,22,16.20
2009,06,11,08,23,16.30
2009,06,11,08,24,16.30
2009,06,11,08,25,16.30
2009,06,11,08,26,16.30
2009,06,11,08,27,16.30
2009,06,11,08,28,16.30
2009,06,11,08,29,16.40
2009,06,11,08,30,16.40
2009,06,11,08,31,16.40
2009,06,11,08,32,16.40
2009,06,11,08,33,16.40
2009,06,11,08,34,16.40
2009,06,11,08,35,16.40
2009,06,11,08,36,16.50
2009,06,11,08,37,16.60
2009,06,11,08,38,16.60
2009,06,11,08,39,16.70
2009,06,11,08,40,16.80
2009,06,11,08,41,16.80
2009,06,11,08,42,16.90
2009,06,11,08,43,17.00
2009,06,11,08,44,17.00
2009,06,11,08,45,17.10
2009,06,11,08,46,17.10
2009,06,11,08,47,17.10
2009,06,11,08,48,17.10
2009,06,11,08,49,17.10
2009,06,11,08,50,17.20
2009,06,11,08,51,17.20
2009,06,11,08,52,17.20
2009,06,11,08,53,17.20
2009,06,11,08,54,17.20
2009,06,11,08,55,17.20
2009,06,11,08,56,17.20
2009,06,11,08,57,17.20
2009,06,11,08,58,17.20
2009,06,11,08,59,17.30
2009,06,11,09,00,17.30
2009,06,11,09,01,17.30
2009,06,11,09,02,17.30
2009,06,11,09,03,17.40
2009,06,11,09,04,17.40
2009,06,11,09,05,17.50
2009,06,11,09,06,17.50
2009,06,11,09,07,17.60
2009,06,11,09,08,17.60
2009,06,11,09,09,17.70
2009,06,11,09,10,17.70
2009,06,11,09,11,17.70
2009,06,11,09,12,17.60
2009,06,11,09,13,17.60
2009,06,11,09,14,17.60
2009,06,11,09,15,17.60
2009,06,11,09,16,17.60
2009,06,11,09,17,17.70
2009,06,11,09,18,17.70
2009,06,11,09,19,17.80
2009,06,11,09,20,17.80
2009,06,11,09,21,17.80
2009,06,11,09,22,17.80
2009,06,11,09,23,17.90
2009,06,11,09,24,17.90
2009,06,11,09,25,18.00
2009,06,11,09,26,18.10
2009,06,11,09,27,18.20
2009,06,11,09,28,18.20
2009,06,11,09,29,18.30
2009,06,11,09,30,18.30
2009,06,11,09,31,18.30
2009,06,11,09,32,18.30
2009,06,11,09,33,18.20
2009,06,11,09,34,18.20
2009,06,11,09,35,18.20
2009,06,11,09,36,18.10
2009,06,11,09,37,18.10
2009,06,11,09,38,18.10
2009,06,11,09,39,18.10
2009,06,11,09,40,18.10
2009,06,11,09,41,18.20
2009,06,11,09,42,18.20
2009,06,11,09,43,18.30
2009,06,11,09,44,18.30
2009,06,11,09,45,18.30
2009,06,11,09,46,18.20
2009,06,11,09,47,18.30
2009,06,11,09,48,18.30
2009,06,11,09,49,18.30
2009,06,11,09,50,18.30
2009,06,11,09,51,18.40
2009,06,11,09,52,18.40
2009,06,11,09,53,18.40
2009,06,11,09,54,18.50
2009,06,11,09,55,18.50
2009,06,11,09,56,18.60
2009,06,11,09,57,18.70
2009,06,11,09,58,18.80
2009,06,11,09,59,18.90
2009,06,11,10,00,19.00
2009,06,11,10,01,19.20
2009,06,11,10,02,19.30
2009,06,11,10,03,19.40
2009,06,11,10,04,19.50
2009,06,11,10,05,19.60
2009,06,11,10,06,19.60
2009,06,11,10,07,19.60
2009,06,11,10,08,19.50
2009,06,11,10,09,19.50
2009,06,11,10,10,19.50
2009,06,11,10,11,19.40
2009,06,11,10,12,19.30
2009,06,11,10,13,19.30
2009,06,11,10,14,19.30
2009,06,11,10,15,19.30
2009,06,11,10,16,19.30
2009,06,11,10,17,19.30
2009,06,11,10,18,19.30
2009,06,11,10,19,19.40
2009,06,11,10,20,19.40
2009,06,11,10,21,19.50
2009,06,11,10,22,19.60
2009,06,11,10,23,19.60
2009,06,11,10,24,19.70
2009,06,11,10,25,19.70
2009,06,11,10,26,19.70
2009,06,11,10,27,19.70
2009,06,11,10,28,19.80
2009,06,11,10,29,19.80
2009,06,11,10,30,19.90
2009,06,11,10,31,20.00
2009,06,11,10,32,20.10
2009,06,11,10,33,20.20
2009,06,11,10,34,20.20
2009,06,11,10,35,20.20
2009,06,11,10,36,20.30
2009,06,11,10,37,20.30
2009,06,11,10,38,20.40
2009,06,11,10,39,20.40
2009,06,11,10,40,20.40
2009,06,11,10,41,20.40
2009,06,11,10,42,20.40
2009,06,11,10,43,20.50
2009,06,11,10,44,20.60
2009,06,11,10,45,20.50
2009,06,11,10,46,20.40
2009,06,11,10,47,20.30
2009,06,11,10,48,20.20
2009,06,11,10,49,20.20
2009,06,11,10,50,20.20
2009,06,11,10,51,20.20
2009,06,11,10,52,20.40
2009,06,11,10,53,20.60
2009,06,11,10,54,20.70
2009,06,11,10,55,20.90
2009,06,11,10,56,21.10
2009,06,11,10,57,21.20
2009,06,11,10,58,21.10
2009,06,11,10,59,21.10
2009,06,11,11,00,21.20
2009,06,11,11,01,21.20
2009,06,11,11,02,21.10
2009,06,11,11,03,21.10
2009,06,11,11,04,21.10
2009,06,11,11,05,21.10
2009,06,11,11,06,21.20
2009,06,11,11,07,21.30
2009,06,11,11,08,21.40
2009,06,11,11,09,21.40
2009,06,11,11,10,21.40
2009,06,11,11,11,21.40
2009,06,11,11,12,21.40
2009,06,11,11,13,21.30
2009,06,11,11,14,21.30
2009,06,11,11,15,21.30
2009,06,11,11,16,21.30
2009,06,11,11,17,21.20
2009,06,11,11,18,21.20
2009,06,11,11,19,21.20
2009,06,11,11,20,21.20
2009,06,11,11,21,21.20
2009,06,11,11,22,21.10
2009,06,11,11,23,21.00
2009,06,11,11,24,21.00
2009,06,11,11,25,21.00
2009,06,11,11,26,21.10
2009,06,11,11,27,21.10
2009,06,11,11,28,21.10
2009,06,11,11,29,21.20
2009,06,11,11,30,21.20
2009,06,11,11,31,21.20
2009,06,11,11,32,21.20
2009,06,11,11,33,21.30
2009,06,11,11,34,21.40
2009,06,11,11,35,21.50
2009,06,11,11,36,21.60
2009,06,11,11,37,21.80
2009,06,11,11,38,21.80
2009,06,11,11,39,22.00
2009,06,11,11,40,22.00
2009,06,11,11,41,22.10
2009,06,11,11,42,22.10
2009,06,11,11,43,22.00
2009,06,11,11,44,22.00
2009,06,11,11,45,21.90
2009,06,11,11,46,21.90
2009,06,11,11,47,21.90
2009,06,11,11,48,22.00
2009,06,11,11,49,22.00
2009,06,11,11,50,22.10
2009,06,11,11,51,22.00
2009,06,11,11,52,21.90
2009,06,11,11,53,21.80
2009,06,11,11,54,21.80
2009,06,11,11,55,21.90
2009,06,11,11,56,22.00
2009,06,11,11,57,22.20
2009,06,11,11,58,22.30
2009,06,11,11,59,22.30
2009,06,11,12,00,22.30
2009,06,11,12,01,22.30
2009,06,11,12,02,22.40
2009,06,11,12,03,22.30
2009,06,11,12,04,22.30
2009,06,11,12,05,22.20
2009,06,11,12,06,22.20
2009,06,11,12,07,22.20
2009,06,11,12,08,22.40
2009,06,11,12,09,22.40
2009,06,11,12,10,22.30
2009,06,11,12,11,22.20
2009,06,11,12,12,22.10
2009,06,11,12,13,22.10
2009,06,11,12,14,22.00
2009,06,11,12,15,22.00
2009,06,11,12,16,21.90
2009,06,11,12,17,21.80
2009,06,11,12,18,21.80
2009,06,11,12,19,21.80
2009,06,11,12,20,21.80
2009,06,11,12,21,21.90
2009,06,11,12,22,22.00
2009,06,11,12,23,22.00
2009,06,11,12,24,22.00
2009,06,11,12,25,21.90
2009,06,11,12,26,21.90
2009,06,11,12,27,21.80
2009,06,11,12,28,21.80
2009,06,11,12,29,21.80
2009,06,11,12,30,21.80
2009,06,11,12,31,21.80
2009,06,11,12,32,21.80
2009,06,11,12,33,21.80
2009,06,11,12,34,21.90
2009,06,11,12,35,22.10
2009,06,11,12,36,22.20
2009,06,11,12,37,22.20
2009,06,11,12,38,22.10
2009,06,11,12,39,22.00
2009,06,11,12,40,22.00
2009,06,11,12,41,21.90
2009,06,11,12,42,21.90
2009,06,11,12,43,21.90
2009,06,11,12,44,21.90
2009,06,11,12,45,21.90
2009,06,11,12,46,21.90
2009,06,11,12,47,21.90
2009,06,11,12,48,21.90
2009,06,11,12,49,21.90
2009,06,11,12,50,21.80
2009,06,11,12,51,21.80
2009,06,11,12,52,21.80
2009,06,11,12,53,21.80
2009,06,11,12,54,21.80
2009,06,11,12,55,21.80
2009,06,11,12,56,21.90
2009,06,11,12,57,22.00
2009,06,11,12,58,22.20
2009,06,11,12,59,22.20
2009,06,11,13,00,22.10
2009,06,11,13,01,22.10
2009,06,11,13,02,22.10
2009,06,11,13,03,22.20
2009,06,11,13,04,22.20
2009,06,11,13,05,22.20
2009,06,11,13,06,22.20
2009,06,11,13,07,22.30
2009,06,11,13,08,22.40
2009,06,11,13,09,22.50
2009,06,11,13,10,22.60
2009,06,11,13,11,22.70
2009,06,11,13,12,22.70
2009,06,11,13,13,22.60
2009,06,11,13,14,22.60
2009,06,11,13,15,22.50
2009,06,11,13,16,22.40
2009,06,11,13,17,22.40
2009,06,11,13,18,22.40
2009,06,11,13,19,22.40
2009,06,11,13,20,22.40
2009,06,11,13,21,22.40
2009,06,11,13,22,22.40
2009,06,11,13,23,22.40
2009,06,11,13,24,22.50
2009,06,11,13,25,22.50
2009,06,11,13,26,22.60
2009,06,11,13,27,22.60
2009,06,11,13,28,22.60
2009,06,11,13,29,22.50
2009,06,11,13,30,22.50
2009,06,11,13,31,22.50
2009,06,11,13,32,22.60
2009,06,11,13,33,22.70
2009,06,11,13,34,22.70
2009,06,11,13,35,22.70
2009,06,11,13,36,22.70
2009,06,11,13,37,22.80
2009,06,11,13,38,22.80
2009,06,11,13,39,22.80
2009,06,11,13,40,22.80
2009,06,11,13,41,22.80
2009,06,11,13,42,22.90
2009,06,11,13,43,23.00
2009,06,11,13,44,23.00
2009,06,11,13,45,23.00
2009,06,11,13,46,22.90
2009,06,11,13,47,22.90
2009,06,11,13,48,22.90
2009,06,11,13,49,22.80
2009,06,11,13,50,22.80
2009,06,11,13,51,22.80
2009,06,11,13,52,22.80
2009,06,11,13,53,22.90
2009,06,11,13,54,22.90
2009,06,11,13,55,22.90
2009,06,11,13,56,23.00
2009,06,11,13,57,23.20
2009,06,11,13,58,23.20
2009,06,11,13,59,23.30
2009,06,11,14,00,23.30
2009,06,11,14,01,23.30
2009,06,11,14,02,23.20
2009,06,11,14,03,23.00
2009,06,11,14,04,22.80
2009,06,11,14,05,22.70
2009,06,11,14,06,22.80
2009,06,11,14,07,22.80
2009,06,11,14,08,22.80
2009,06,11,14,09,22.80
2009,06,11,14,10,22.90
2009,06,11,14,11,22.90
2009,06,11,14,12,22.90
2009,06,11,14,13,22.90
2009,06,11,14,14,22.80
2009,06,11,14,15,22.80
2009,06,11,14,16,22.80
2009,06,11,14,17,22.80
2009,06,11,14,18,22.80
2009,06,11,14,19,22.80
2009,06,11,14,20,22.90
2009,06,11,14,21,22.90
2009,06,11,14,22,22.90
2009,06,11,14,23,22.90
2009,06,11,14,24,22.80
2009,06,11,14,25,22.80
2009,06,11,14,26,23.00
2009,06,11,14,27,23.10
2009,06,11,14,28,23.00
2009,06,11,14,29,22.90
2009,06,11,14,30,22.80
2009,06,11,14,31,22.60
2009,06,11,14,32,22.50
2009,06,11,14,33,22.40
2009,06,11,14,34,22.30
2009,06,11,14,35,22.40
2009,06,11,14,36,22.40
2009,06,11,14,37,22.40
2009,06,11,14,38,22.40
2009,06,11,14,39,22.30
2009,06,11,14,40,22.30
2009,06,11,14,41,22.40
2009,06,11,14,42,22.40
2009,06,11,14,43,22.40
2009,06,11,14,44,22.40
2009,06,11,14,45,22.50
2009,06,11,14,46,22.60
2009,06,11,14,47,22.80
2009,06,11,14,48,22.80
2009,06,11,14,49,22.90
2009,06,11,14,50,22.90
2009,06,11,14,51,22.90
2009,06,11,14,52,23.00
2009,06,11,14,53,23.00
2009,06,11,14,54,22.90
2009,06,11,14,55,22.80
2009,06,11,14,56,22.80
2009,06,11,14,57,22.90
2009,06,11,14,58,23.00
2009,06,11,14,59,23.10
2009,06,11,15,00,23.30
2009,06,11,15,01,23.40
2009,06,11,15,02,23.50
2009,06,11,15,03,23.50
2009,06,11,15,04,23.50
2009,06,11,15,05,23.40
2009,06,11,15,06,23.40
2009,06,11,15,07,23.30
2009,06,11,15,08,23.20
2009,06,11,15,09,23.20
2009,06,11,15,10,23.20
2009,06,11,15,11,23.20
2009,06,11,15,12,23.20
2009,06,11,15,13,23.20
2009,06,11,15,14,23.30
2009,06,11,15,15,23.40
2009,06,11,15,16,23.30
2009,06,11,15,17,23.30
2009,06,11,15,18,23.50
2009,06,11,15,19,23.60
2009,06,11,15,20,23.50
2009,06,11,15,21,23.40
2009,06,11,15,22,23.20
2009,06,11,15,23,23.00
2009,06,11,15,24,22.90
2009,06,11,15,25,22.80
2009,06,11,15,26,22.80
2009,06,11,15,27,22.90
2009,06,11,15,28,22.90
2009,06,11,15,29,22.90
2009,06,11,15,30,22.90
2009,06,11,15,31,22.80
2009,06,11,15,32,22.80
2009,06,11,15,33,22.80
2009,06,11,15,34,22.60
2009,06,11,15,35,22.60
2009,06,11,15,36,22.50
2009,06,11,15,37,22.50
2009,06,11,15,38,22.50
2009,06,11,15,39,22.40
2009,06,11,15,40,22.50
2009,06,11,15,41,22.60
2009,06,11,15,42,22.80
2009,06,11,15,43,23.00
2009,06,11,15,44,23.10
2009,06,11,15,45,23.10
2009,06,11,15,46,23.20
2009,06,11,15,47,23.40
2009,06,11,15,48,23.40
2009,06,11,15,49,23.30
2009,06,11,15,50,23.10
2009,06,11,15,51,23.00
2009,06,11,15,52,22.90
2009,06,11,15,53,22.90
2009,06,11,15,54,22.80
2009,06,11,15,55,22.90
2009,06,11,15,56,22.90
2009,06,11,15,57,23.00
2009,06,11,15,58,23.00
2009,06,11,15,59,23.10
2009,06,11,16,00,23.10
2009,06,11,16,01,23.10
2009,06,11,16,02,23.10
2009,06,11,16,03,23.00
2009,06,11,16,04,22.90
2009,06,11,16,05,23.00
2009,06,11,16,06,23.00
2009,06,11,16,07,23.00
2009,06,11,16,08,23.00
2009,06,11,16,09,22.90
2009,06,11,16,10,23.00
2009,06,11,16,11,23.10
2009,06,11,16,12,23.20
2009,06,11,16,13,23.20
2009,06,11,16,14,23.20
2009,06,11,16,15,23.10
2009,06,11,16,16,23.10
2009,06,11,16,17,23.00
2009,06,11,16,18,22.90
2009,06,11,16,19,22.90
2009,06,11,16,20,22.90
2009,06,11,16,21,23.00
2009,06,11,16,22,23.10
2009,06,11,16,23,23.20
2009,06,11,16,24,23.20
2009,06,11,16,25,23.20
2009,06,11,16,26,23.10
2009,06,11,16,27,23.00
2009,06,11,16,28,23.00
2009,06,11,16,29,23.00
2009,06,11,16,30,23.00
2009,06,11,16,31,23.10
2009,06,11,16,32,23.10
2009,06,11,16,33,23.00
2009,06,11,16,34,23.10
2009,06,11,16,35,23.20
2009,06,11,16,36,23.30
2009,06,11,16,37,23.30
2009,06,11,16,38,23.30
2009,06,11,16,39,23.30
2009,06,11,16,40,23.20
2009,06,11,16,41,23.00
2009,06,11,16,42,23.00
2009,06,11,16,43,22.90
2009,06,11,16,44,22.90
2009,06,11,16,45,22.90
2009,06,11,16,46,22.80
2009,06,11,16,47,22.80
2009,06,11,16,48,22.70
2009,06,11,16,49,22.70
2009,06,11,16,50,22.80
2009,06,11,16,51,22.80
2009,06,11,16,52,22.80
2009,06,11,16,53,22.80
2009,06,11,16,54,22.90
2009,06,11,16,55,22.90
2009,06,11,16,56,22.80
2009,06,11,16,57,22.80
2009,06,11,16,58,22.80
2009,06,11,16,59,22.80
2009,06,11,17,00,22.70
2009,06,11,17,01,22.60
2009,06,11,17,02,22.70
2009,06,11,17,03,22.60
2009,06,11,17,04,22.70
2009,06,11,17,05,22.60
2009,06,11,17,06,22.60
2009,06,11,17,07,22.60
2009,06,11,17,08,22.60
2009,06,11,17,09,22.60
2009,06,11,17,10,22.70
2009,06,11,17,11,22.70
2009,06,11,17,12,22.70
2009,06,11,17,13,22.80
2009,06,11,17,14,22.80
2009,06,11,17,15,22.80
2009,06,11,17,16,22.80
2009,06,11,17,17,22.80
2009,06,11,17,18,22.70
2009,06,11,17,19,22.70